Regional Weather Roundup
Issued by NWS

Home | Current Version | Previous Version | Text Only | Print | Product List | Glossary Off
Versions: 1 2 3 4 5 6 7 8 9 10 11 12 13 14 15 16 17 18 19 20 21 22 23 24 25 26 27 28 29 30 31 32 33 34 35 36 37 38 39 40 41 42 43 44 45 46 47 48 49 50

000
ASUS43 KLOT 051808
RWRIL

ILLINOIS REGIONAL WEATHER ROUNDUP
NATIONAL WEATHER SERVICE CHICAGO/ROMEOVILLE IL
100 PM CDT THU MAY 05 2016

NOTE: "FAIR" INDICATES FEW OR NO CLOUDS BELOW 12,000 FEET WITH NO
SIGNIFICANT WEATHER AND/OR OBSTRUCTIONS TO VISIBILITY.

* THESE STATIONS ARE NOT UNDER NWS QUALITY CONTROL. THEY ALSO MAY NOT
  REPORT WEATHER SUCH AS PRECIPITATION OR FOG.

ILZ001-002-007-009-015-016-024-051900-
NORTHWEST ILLINOIS

CITY           SKY/WX    TMP DP  RH WIND       PRES   REMARKS
MOLINE         SUNNY     62  39  42 NE9       30.05F
6HR MIN TEMP:  45; 6HR MAX TEMP:  62;

STERLING*      SUNNY     61  45  55 NE10      30.04F
SAVANNA*       SUNNY     59  39  47 W9        30.04F
$$

ILZ003-004-008-010-011-017-018-051900-
NORTH CENTRAL ILLINOIS

CITY           SKY/WX    TMP DP  RH WIND       PRES   REMARKS
ROCKFORD       SUNNY     61  41  47 NE6       30.04F
6HR MIN TEMP:  41; 6HR MAX TEMP:  61;

FREEPORT*      SUNNY     58  40  51 NW6       30.05F
ROCHELLE*      SUNNY     59  44  57 N9        30.03F
DE KALB*       SUNNY     59  45  60 N12       30.02F
$$

ILZ005-006-012>014-019>023-051900-
NORTHEAST ILLINOIS

CITY           SKY/WX    TMP DP  RH WIND       PRES   REMARKS
CHICAGO-OHARE  SUNNY     59  41  51 N8        30.00F
6HR MIN TEMP:  42; 6HR MAX TEMP:  60;

CHICAGO-MIDWAY SUNNY     57  41  55 N13G23    30.01F
6HR MIN TEMP:  44; 6HR MAX TEMP:  58;

AURORA         SUNNY     60  46  59 N6        30.01F
6HR MIN TEMP:  42; 6HR MAX TEMP:  61;

LANSING*       SUNNY     50  41  73 NE14G20   30.01F
JOLIET*        SUNNY     62  45  54 N10       29.99F
WAUKEGAN       SUNNY     57  42  57 NE7       30.00F
6HR MIN TEMP:  41; 6HR MAX TEMP:  57;

DUPAGE AIRPORT SUNNY     60  42  51 N10       30.00F
6HR MIN TEMP:  41; 6HR MAX TEMP:  60;

KANKAKEE*      SUNNY     60  44  55 N14       29.99S
WHEELING       NOT AVBL
MORRIS*        SUNNY     62  44  53 CALM      29.99F
ROMEOVILLE*    SUNNY     60  43  53 N8        30.00F
NORTHERLY ISL    N/A     48  39  71 N12         N/A
NORTHERLY ISL    N/A     48  39  71 N12         N/A
$$

LMZ740>746-051900-
SOUTHERN LAKE MICHIGAN

STATION/POSITION SKY/WX   TEMP    WIND        PRES    VSBY  WAVE
                          AIR SEA DIR/SP/G                  HT/PER
                          (F)     (DEG/KT/KT) (MB)    (MI)  (FT/S)
SOUTHERN BUOY              40 40  360/ 14/ 17 1016.1R         4/ 6
WILMETTE HARBOR            43 44   30/ 14/ 17   N/A           5/ 7
HARRISON CRIB              43     350/ 21/ 22   N/A
BURNHAM HARBOR             49     360/  8/ 16   N/A
CALUMET HARBOR             45     340/ 14/ 18 1016.3R
BURNS HARBOR               42     350/ 12/ 15 1017.3R
MICHIGAN CITY              43     330/ 14/ 15   N/A
ST. JOSEPH                 42 47                N/A           4/ 6
$$

ILZ025>027-034>036-040-047-049-050-058-095>099-051900-
WEST-CENTRAL ILLINOIS

CITY           SKY/WX    TMP DP  RH WIND       PRES   REMARKS
QUINCY         SUNNY     60  40  47 N7        30.06F
GALESBURG*     SUNNY     60  41  48 N8        30.04F
MACOMB*        SUNNY     61  38  42 N8G18     30.07F
JACKSONVILLE*  MOSUNNY   60  40  47 NW7       30.04F
PITTSFIELD*    SUNNY     61  41  47 N8        30.06F
$$

ILZ028>032-037-038-041>044-048-051>054-059>061-051900-
CENTRAL ILLINOIS

CITY           SKY/WX    TMP DP  RH WIND       PRES   REMARKS
PONTIAC        SUNNY     62  47  57 NW13      30.01S
BLOOMINGTON    MOSUNNY   61  47  59 N15       30.01F
DECATUR        MOSUNNY   61  46  57 NW15      30.00F
PEORIA         SUNNY     60  43  53 NE10      30.03F
6HR MIN TEMP:  42; 6HR MAX TEMP:  61;

LACON*         SUNNY     58  44  58 N7        30.02F
LINCOLN*       SUNNY     61  47  60 N10G18    30.01F
SPRINGFIELD    SUNNY     62  44  51 N10G20    30.03F
6HR MIN TEMP:  44; 6HR MAX TEMP:  62;

TAYLORVILLE    MOSUNNY   60  45  58 N14G20    30.02S
6HR MIN TEMP:  42; 6HR MAX TEMP:  60; 6HR PCP:  0.10;

$$

ILZ033-039-045-046-055>057-062-063-051900-
EAST-CENTRAL ILLINOIS

CITY           SKY/WX    TMP DP  RH WIND       PRES   REMARKS
CHAMPAIGN      MOSUNNY   63  45  51 N15G25    29.97F
RANTOUL*       SUNNY     63  46  54 N16       29.97S
MATTOON        PTSUNNY   59  46  62 N13G21    29.97F
PARIS*         SUNNY     59  48  66 N8        29.96F
$$

ILZ079-100>102-051900-
SOUTHWEST ILLINOIS

CITY           SKY/WX    TMP DP  RH WIND       PRES   REMARKS
ALTON          PTSUNNY   59  43  55 N12G17    30.04S
BELLEVILLE     MOSUNNY   60  45  57 N8G20     30.02S
CAHOKIA*       PTSUNNY   61  42  49 N15G21    30.03F
SPARTA*        PTSUNNY   57  45  63 N9G18     30.03S
$$

ILZ064>066-069>071-074>076-080>082-084>086-088>090-092>094-051900-
SOUTH-CENTRAL ILLINOIS

CITY           SKY/WX    TMP DP  RH WIND       PRES   REMARKS
CARBONDALE     PTSUNNY   58  42  55 N14       30.00S
6HR MIN TEMP:  47; 6HR MAX TEMP:  61;

CAIRO*         MOSUNNY   62  43  49 N15G21    29.97S
EFFINGHAM*     PTSUNNY   57  48  72 NW10G17   30.01S
MARION         CLOUDY    57  43  58 N16       30.00S
MT. VERNON     CLOUDY    55  41  58 N7        30.01S
CENTRALIA*     CLOUDY    56  46  70 N14G20    30.01S
SALEM*         CLOUDY    56  44  64 N12       30.02R
METROPOLIS*    CLOUDY    58  46  64 N12G18    29.99R
$$

ILZ067-068-072-073-078-083-087-091-051900-
SOUTHEAST ILLINOIS

CITY           SKY/WX    TMP DP  RH WIND       PRES   REMARKS
LAWRENCEVILLE  CLOUDY    56  45  66 N15       29.97S
FLORA*         PTSUNNY   57  45  64 N14       30.00S
FAIRFIELD*     CLOUDY    56  44  64 N12       29.99S
HARRISBURG*    CLOUDY    55  44  65 N13       29.99F
ROBINSON*      PTSUNNY   55  47  75 N13       29.98S
CARMI*         CLOUDY    55  44  68 N17       29.97S
$$

ABBREVIATIONS USED IN REMARKS
   TC - TEMPERATURE IN CELSIUS
  WCI - WIND CHILL INDEX
   HX - HEAT INDEX
  VSB - VISIBILITY
$$





USA.gov is the U.S. government's official web portal to all federal, state and local government web resources and services.